Weather observations for the past three days for
Lufkin, Angelina County Airport
Imperial (Metric)
Date Time (cdt) Wind (mph) Vis. (mi.) Weather Sky Cond. Temperature (ºF) Relative Humidity Wind Chill (°F) Heat Index (°F) Pressure Precipitation (in)
Air Dwpt 6 hour altimeter (in) sea level (mb) 1 hr 3 hr 6 hr
Max. Min.
13 00:53 NE 5 10.00 Fair CLR 75 69.1 86 73.9 82% 75 29.93 1013.0
12 23:53 Calm 10.00 Fair CLR 75 70 84% 75 29.94 1013.5
12 22:53 Calm 10.00 Fair CLR 77 70 79% 79 29.95 1013.5
12 21:53 Calm 10.00 Fair CLR 78.1 70 76% 80 29.93 1012.9
12 20:53 NE 5 10.00 Fair CLR 80.1 70 71% 83 29.92 1012.7
12 19:53 NE 3 10.00 Fair CLR 84 69.1 61% 88 29.92 1012.7
12 18:53 E 7 10.00 Fair CLR 86 69.1 90 86 57% 90 29.92 1012.8
12 17:53 NE 6 10.00 Fair CLR 88 69.1 54% 92 29.93 1012.8
12 16:53 NE 3 10.00 A Few Clouds FEW060 89.1 70 53% 94 29.94 1013.2
12 15:53 NE 7 10.00 Overcast BKN047 OVC055 88 70 55% 93 29.95 1013.7
12 14:53 E 6 10.00 Partly Cloudy SCT048 89.1 69.1 52% 94 29.96 1013.9
12 13:53 NE 6 10.00 Fair CLR 88 66.9 50% 91 29.97 1014.4
12 12:53 Vrbl 7 10.00 Fair CLR 86 68 87.1 73 55% 89 29.99 1014.9
12 11:53 E 8 10.00 Fair CLR 86 69.1 57% 90 30 1015.2
12 10:53 NE 6 10.00 Fair CLR 84 66.9 57% 87 29.99 1015.2
12 09:53 E 8 10.00 Mostly Cloudy BKN075 81 66.9 62% 83 29.99 1015.3
12 08:53 E 7 10.00 Overcast SCT070 BKN080 OVC110 78.1 66.9 69% 80 29.99 1015.2
12 06:53 NE 3 10.00 Overcast OVC100 73.9 68 75.9 73 82% 29.96 1014.1
12 05:53 NE 5 10.00 A Few Clouds FEW100 73 71.1 94% 29.95 1013.8
12 04:53 N 3 10.00 A Few Clouds FEW095 73.9 72 94% 29.94 1013.4
12 03:53 Calm 10.00 Partly Cloudy SCT110 73.9 73 97% 29.93 1013.1
12 02:53 Calm 10.00 Fair CLR 73.9 73.9 100% 29.92 1012.8
12 01:53 Calm 10.00 Fair CLR 75 73.9 96% 73 29.92 1012.5
12 00:53 Calm 10.00 Fair CLR 75.9 73 82.9 75.9 91% 76 29.92 1012.6 0.02
11 23:53 E 3 10.00 Fair CLR 77 73 88% 78 29.92 1012.8
11 22:53 NE 3 10.00 Fair CLR 77 75 94% 78 29.91 1012.2
11 21:53 NE 3 10.00 Fair CLR 77 75 94% 78 29.89 1011.6 0.02
11 20:53 NE 3 10.00 Light Rain BKN048 BKN080 BKN120 78.1 75.9 93% 81 29.89 1011.8 0.01
11 19:53 Calm 10.00 Light Rain FEW075 BKN095 OVC120 80.1 77 90% 86 29.89 1011.7 0.01
11 18:53 N 5 10.00 A Few Clouds FEW090 82.9 75 91 82.9 77% 90 29.87 1010.9
11 17:53 NE 3 10.00 A Few Clouds FEW065 FEW095 84.9 75 72% 93 29.85 1010.4
11 16:53 NE 6 10.00 Fair CLR 87.1 75 67% 97 29.86 1010.5
11 15:53 Vrbl 7 10.00 Fair CLR 91 73.9 57% 101 29.86 1010.7
11 14:53 NE 6 10.00 Mostly Cloudy FEW039 SCT048 BKN080 87.1 73.9 65% 95 29.89 1011.5
11 13:53 Calm 10.00 A Few Clouds FEW036 90 73.9 59% 99 29.9 1011.9
11 12:53 Vrbl 3 10.00 A Few Clouds FEW033 89.1 73.9 89.1 73.9 61% 98 29.91 1012.4
11 11:53 Vrbl 5 10.00 Fair CLR 86 73 65% 93 29.91 1012.4
11 10:53 E 6 10.00 Fair CLR 84.9 72 65% 91 29.92 1012.6
11 09:53 Vrbl 5 10.00 Fair CLR 82 70 67% 86 29.93 1012.9
11 08:53 E 7 10.00 Fair CLR 79 70 74% 82 29.93 1012.9
11 07:53 NE 6 10.00 Fair CLR 75.9 72 88% 76 29.91 1012.4
11 06:53 NE 3 7.00 Fair CLR 73.9 73 77 73 97% 29.9 1012.1
11 05:53 NE 3 10.00 Fair CLR 73.9 73 97% 29.89 1011.7
11 04:53 NE 5 10.00 Fair CLR 73.9 73.9 100% 29.88 1011.4
11 03:53 NE 3 10.00 Fair CLR 75 73.9 96% 73 29.89 1011.5
11 02:53 Calm 9.00 Fair CLR 75.9 75 97% 75 29.88 1011.5
11 01:53 Calm 10.00 Fair CLR 75.9 75.9 100% 75 29.89 1011.6
11 00:53 E 6 10.00 Fair CLR 77 75.9 86 77 96% 78 29.89 1011.7
10 23:53 E 6 10.00 A Few Clouds FEW035 78.1 75.9 93% 81 29.88 1011.4
10 22:53 NE 3 10.00 Fair CLR 79 75.9 90% 83 29.88 1011.2
10 21:53 N 5 10.00 Fair CLR 78.1 77 97% 81 29.86 1010.6
10 20:53 N 5 10.00 Fair CLR 81 77 88% 88 29.83 1009.7
10 19:53 NE 3 10.00 Fair CLR 82.9 77 82% 92 29.82 1009.3
10 18:53 Vrbl 5 10.00 Fair CLR 86 75 88 79 70% 95 29.81 1008.9
10 17:53 N 7 10.00 Fair CLR 87.1 75 67% 97 29.81 1009.0
10 16:53 N 7 10.00 Fair CLR 87.1 73.9 65% 95 29.83 1009.5
10 15:53 N 9 10.00 Fair CLR 84.9 75 72% 93 29.84 1009.8
10 14:53 Vrbl 3 10.00 Fair CLR 82 75 79% 89 29.86 1010.7
10 13:53 Vrbl 3 10.00 Fair CLR 84 73.9 72% 91 29.87 1011.0
10 12:53 N 9 10.00 Mostly Cloudy FEW060 SCT075 BKN090 79 73.9 88 77 85% 83 29.87 1011.2 0.04 0.04
10 11:53 N 7 10.00 Overcast FEW027 BKN065 OVC095 86 78.1 77% 98 29.88 1011.3
10 10:53 Calm 10.00 A Few Clouds FEW022 88 78.1 73% 102 29.89 1011.6
10 09:53 SW 3 10.00 Mostly Cloudy BKN060 84 78.1 82% 95 29.89 1011.5
10 08:53 S 3 10.00 Mostly Cloudy BKN055 BKN070 BKN085 79 78.1 97% 83 29.89 1011.7
10 07:53 Calm 10.00 Overcast BKN050 OVC095 79 77 94% 83 29.88 1011.4
10 06:53 SE 3 10.00 Overcast BKN050 OVC060 78.1 77 79 77 97% 81 29.86 1010.7
10 05:53 Calm 10.00 Mostly Cloudy BKN060 77 77 100% 78 29.85 1010.4
10 03:53 SE 3 10.00 Overcast BKN060 BKN070 OVC085 78.1 75.9 93% 81 29.84 1009.9
10 02:53 Calm 10.00 Mostly Cloudy BKN070 78.1 75.9 93% 81 29.84 1010.1
10 01:53 Calm 10.00 Mostly Cloudy SCT045 BKN060 78.1 75.9 93% 81 29.87 1011.0
Date Time (cdt) Wind (mph) Vis. (mi.) Weather Sky Cond. Air Dwpt Max. Min. Relative Humidity Wind Chill (°F) Heat Index (°F) altimeter (in) sea level (mb) 1 hr 3 hr 6 hr
6 hour
Temperature (ºF) Pressure Precipitation (in)